Location: Newark
(46.3567°N, 6.1428°E)
Time: 20:43:56
(UTC+00:00)

BEESAT 2 - Pass Details

Date: 25 October 2019
Orbit: 493 x 535 km, 64.9° (Epoch: 14 November)

Event Time Altitude Azimuth Distance (km) Brightness Sun altitude
Exits shadow 05:15:53 - 330° (NNW) 2,720 ? -9.3°
Rises 05:15:58 0° 331° (NNW) 2,691 ? -9.3°
Reaches altitude 10° 05:18:34 10° 347° (NNW) 1,799 ? -8.8°
Maximum altitude 05:21:45 22° 39° (NE) 1,205 ? -8.3°
Drops below altitude 10° 05:24:56 10° 92° (E) 1,791 ? -7.7°
Sets 05:27:30 0° 107° (ESE) 2,675 ? -7.3°
